Temp
61 63 70 68 69 66 64 64 63 63 64 63 62 62 63 62 61 61 62 61 62 61 60 59 59 58 57 57 56 56 56 55
58 59 61 63 63 64 64 63 63 63 62 62 62 61 61 59 59 61 61 60 60 60 59 56 56 55 57 58 56 55 54 55
58 58 59 62 63 63 62 62 62 61 60 62 61 61 60 60 61 61 62 60 60 59 58 56 56 55 55 56 55 54 54 55
55 56 57 60 61 61 61 61 61 59 57 54 53 54 53 53 53 55 54 54 55 57 57 58 57 55 56 56 55 55 53 54
55 54 55 55 55 58 59 59 59 58 56 55 55 54 53 52 50 48 48 50 50 51 55 56 56 53 53 54 55 54 54 52
52 53 54 54 56 57 58 58 57 55 55 55 53 51 50 47 46 46 46 46 47 49 48 48 48 49 50 52 52 52 53 54
52 53 53 52 51 52 53 55 54 54 53 53 53 52 49 46 45 45 45 44 44 45 46 46 46 48 49 50 50 50 50 52
51 52 52 51 51 51 52 53 53 53 52 52 52 51 49 48 47 45 44 44 43 43 44 44 47 48 49 49 49 49 50 50
52 54 53 53 53 52 52 53 53 53 52 53 51 50 49 48 47 46 46 45 44 44 44 44 45 47 48 48 47 48 48 48
53 53 53 53 53 53 52 53 54 54 53 52 50 49 48 48 46 46 46 45 45 44 43 43 44 44 44 44 45 46 46 46
52 53 53 53 53 53 52 52 54 55 53 52 51 50 49 48 46 47 46 45 44 44 43 42 42 42 42 43 44 45 45 46
52 51 52 53 52 51 51 51 52 52 52 50 50 50 49 48 46 48 46 44 43 43 43 43 43 42 42 43 43 44 44 44
52 52 51 51 51 51 51 51 50 51 51 51 50 49 49 47 46 47 45 44 43 43 43 45 45 44 44 43 43 43 43 42
50 50 50 50 50 50 51 51 51 51 51 49 48 48 48 47 47 47 45 44 44 45 45 45 45 44 43 43 43 42 42 42
48 46 47 48 50 50 50 50 50 50 49 48 47 47 47 47 48 46 46 47 47 46 46 45 44 43 43 43 43 42 41 42
48 48 46 48 48 49 50 49 49 49 48 48 47 47 46 46 46 46 45 47 47 46 45 44 44 43 43 42 42 40 40 40
49 50 51 50 50 49 49 49 49 49 48 47 48 48 47 47 46 45 45 47 46 45 44 43 41 43 41 40 41 39 39 38
48 48 49 49 49 48 47 48 49 48 47 48 48 47 46 46 46 45 45 46 46 44 44 43 41 40 40 40 39 39 38 37
48 49 49 49 49 48 47 47 47 46 46 46 46 46 45 44 44 43 45 46 44 44 42 42 41 40 39 39 38 38 37 37
MSLP
1007.72 1007.15 1007.07 1007.86 1008.42 1008.98 1009.94 1010.73 1011.41 1012.02 1012.53 1013.02 1013.56 1013.89 1013.96 1013.99 1013.97 1014.24 1014.62 1014.73 1015.12 1015.54 1015.54 1015.53 1015.61 1016.00 1016.13 1016.42 1016.58 1017.04 1017.59 1017.12
1007.81 1007.89 1007.92 1008.32 1008.76 1009.23 1009.77 1010.51 1011.37 1012.03 1012.67 1013.23 1013.53 1013.72 1013.99 1014.24 1014.13 1014.12 1014.26 1014.30 1014.51 1014.84 1014.94 1015.37 1015.58 1015.77 1015.72 1015.97 1016.24 1016.55 1017.31 1017.36
1008.36 1008.14 1008.22 1008.31 1008.80 1009.29 1010.06 1010.82 1011.56 1012.21 1012.66 1013.17 1013.55 1013.83 1014.00 1014.13 1013.84 1013.92 1014.10 1014.34 1014.56 1014.67 1014.98 1015.08 1015.31 1015.47 1015.70 1015.77 1015.84 1016.16 1016.44 1016.98
1009.25 1009.17 1008.98 1009.00 1009.48 1009.88 1010.47 1011.11 1011.80 1012.46 1012.90 1013.42 1013.86 1014.05 1014.15 1014.39 1014.15 1014.10 1014.32 1014.40 1014.41 1014.28 1014.23 1014.50 1014.75 1014.96 1015.17 1015.34 1015.43 1015.67 1015.83 1016.22
1009.79 1010.05 1010.14 1010.13 1010.37 1010.53 1011.00 1011.61 1012.16 1012.43 1012.79 1013.15 1013.61 1013.91 1014.26 1014.06 1014.16 1014.29 1014.42 1014.48 1014.24 1014.31 1014.04 1013.93 1014.19 1014.35 1014.59 1014.89 1014.96 1015.11 1015.44 1015.67
1010.53 1010.88 1010.95 1011.11 1011.08 1011.27 1011.46 1011.67 1012.10 1012.44 1012.78 1013.04 1013.39 1013.67 1013.73 1013.91 1014.21 1014.27 1014.29 1014.38 1014.23 1014.01 1014.18 1014.04 1014.20 1014.34 1014.25 1014.60 1014.77 1014.97 1014.80 1015.02
1011.11 1011.25 1011.40 1011.66 1011.63 1011.67 1011.92 1012.22 1012.50 1012.52 1012.68 1012.92 1013.00 1013.24 1013.47 1014.18 1014.34 1014.32 1014.26 1014.26 1014.16 1014.29 1014.22 1014.29 1014.39 1014.55 1014.52 1014.62 1014.58 1014.65 1014.75 1014.54
1011.18 1011.43 1011.66 1011.82 1012.06 1012.12 1012.16 1012.27 1012.42 1012.50 1012.77 1012.91 1012.81 1012.98 1013.38 1013.68 1013.76 1013.96 1014.03 1014.01 1014.21 1014.24 1014.32 1014.29 1014.35 1014.42 1014.56 1014.67 1014.63 1014.87 1014.68 1014.54
1010.75 1010.94 1011.20 1011.43 1011.58 1011.70 1011.93 1012.16 1012.19 1012.21 1012.33 1012.19 1012.24 1012.52 1012.90 1013.15 1013.13 1013.21 1013.40 1013.51 1013.27 1013.62 1013.95 1014.11 1014.04 1014.09 1014.30 1014.42 1014.56 1014.58 1014.41 1014.43
1010.33 1010.62 1010.63 1010.80 1010.96 1010.93 1011.10 1011.22 1011.19 1011.38 1011.50 1011.64 1011.87 1012.05 1012.40 1012.58 1012.67 1012.88 1012.84 1012.76 1012.96 1013.01 1013.34 1013.68 1013.97 1013.85 1013.93 1014.09 1014.21 1014.24 1014.18 1014.07
1010.28 1010.40 1010.37 1010.45 1010.41 1010.38 1010.47 1010.55 1010.53 1010.55 1010.68 1010.89 1011.11 1011.36 1011.73 1012.05 1012.31 1012.45 1012.34 1012.13 1012.44 1012.76 1012.89 1013.06 1013.46 1013.76 1013.70 1013.86 1013.96 1013.84 1013.94 1013.91
1009.71 1009.92 1009.96 1010.14 1010.29 1010.45 1010.60 1010.65 1010.55 1010.43 1010.61 1010.76 1010.92 1010.82 1011.05 1011.32 1011.71 1011.67 1011.76 1012.00 1012.21 1012.37 1012.43 1012.61 1012.90 1013.30 1013.29 1013.40 1013.56 1013.68 1013.59 1013.51
1009.25 1009.48 1009.68 1009.89 1010.04 1010.23 1010.23 1010.38 1010.51 1010.43 1010.52 1010.62 1010.63 1010.64 1010.65 1010.98 1011.09 1010.86 1010.88 1010.98 1011.29 1011.46 1011.85 1012.23 1012.46 1012.55 1012.71 1012.95 1013.13 1013.33 1013.34 1013.42
1009.12 1009.52 1009.85 1010.00 1010.12 1010.35 1010.48 1010.48 1010.37 1010.43 1010.54 1010.63 1010.54 1010.52 1010.65 1010.46 1010.27 1010.09 1010.19 1010.39 1010.59 1011.03 1011.27 1011.45 1011.65 1011.75 1012.08 1012.57 1012.84 1012.93 1013.17 1013.30
1008.92 1009.52 1009.95 1010.10 1010.23 1010.24 1010.28 1010.35 1010.39 1010.42 1010.57 1010.70 1010.54 1010.38 1010.37 1010.19 1009.72 1009.61 1009.69 1009.85 1010.06 1010.21 1010.49 1010.84 1011.23 1011.31 1011.66 1012.20 1012.34 1012.55 1012.60 1012.99
1008.78 1009.25 1009.59 1009.76 1009.93 1009.98 1009.99 1010.19 1010.29 1010.21 1010.33 1010.41 1010.18 1009.81 1009.49 1009.38 1009.03 1008.83 1008.98 1009.33 1009.27 1009.19 1009.70 1009.94 1010.26 1010.73 1011.03 1011.49 1011.82 1012.13 1012.44 1012.74
1008.30 1008.74 1009.13 1009.39 1009.72 1009.79 1009.79 1009.90 1010.04 1010.01 1009.97 1009.94 1009.68 1009.50 1009.33 1008.94 1008.56 1008.18 1008.39 1008.60 1008.63 1008.70 1008.97 1009.46 1009.99 1010.13 1010.26 1010.71 1011.23 1011.69 1012.11 1012.49
1008.05 1008.59 1008.89 1008.99 1009.28 1009.57 1009.81 1009.86 1009.88 1009.73 1009.56 1009.47 1009.22 1009.11 1009.02 1008.62 1008.12 1007.86 1007.82 1007.82 1008.05 1008.12 1008.49 1009.03 1009.13 1009.51 1009.95 1010.29 1010.72 1011.28 1011.81 1012.15
1008.11 1008.55 1008.76 1008.78 1008.82 1009.22 1009.50 1009.55 1009.73 1009.67 1009.41 1009.32 1008.92 1008.85 1008.70 1008.36 1007.92 1007.61 1007.59 1007.69 1007.66 1007.74 1008.24 1008.65 1008.97 1009.12 1009.50 1010.01 1010.39 1010.94 1011.47 1011.78
Wind_Speed
4 7 11 12 11 9 9 7 9 8 6 5 3 2 1 3 4 3 2 3 4 4 4 5 4 4 4 4 4 2 2 6
2 4 5 8 8 10 11 11 9 7 3 3 3 3 2 1 3 5 5 5 6 5 4 4 4 5 6 7 3 4 2 4
4 6 6 7 10 9 10 9 8 5 3 2 2 2 1 1 2 4 5 5 5 5 6 5 5 4 5 7 7 4 5 7
4 6 6 8 9 8 9 9 7 5 6 4 2 2 2 1 2 2 1 3 4 6 6 6 6 5 6 8 8 9 6 6
6 6 7 7 6 8 9 8 8 6 7 4 4 4 4 3 2 1 1 2 4 5 6 6 7 4 5 5 5 6 7 7
8 7 7 5 6 7 7 7 6 5 5 5 5 5 3 1 0 3 4 3 5 4 4 3 3 3 3 5 4 7 7 7
7 6 6 5 4 5 6 7 5 6 6 7 7 7 4 2 4 4 4 4 4 5 3 3 2 2 3 3 3 5 5 7
9 9 8 7 8 8 7 7 7 7 7 7 8 7 5 8 7 5 5 4 3 5 5 5 3 3 3 3 3 5 3 5
9 9 8 9 9 9 8 8 8 9 8 9 6 7 5 6 6 5 5 5 5 5 6 6 6 5 5 5 4 4 4 5
8 7 8 8 8 9 10 9 9 8 8 6 8 7 7 6 6 5 5 5 3 5 6 6 6 6 6 5 4 6 5 5
8 8 8 7 7 7 8 8 9 9 8 7 6 7 7 6 5 9 9 6 6 6 6 6 6 6 6 6 5 5 6 6
9 8 8 8 5 6 6 7 7 8 5 4 6 6 6 6 6 8 7 4 6 7 6 5 5 6 5 5 6 6 7 5
9 8 7 6 6 5 7 6 6 6 5 5 5 6 5 6 7 9 7 8 7 8 6 7 7 7 6 7 6 4 4 4
6 5 5 4 3 1 1 1 2 2 2 4 6 6 6 8 8 8 7 7 7 7 8 9 10 7 7 6 7 6 5 6
6 5 6 5 4 4 4 5 4 5 5 5 5 7 7 8 8 7 7 8 9 9 9 9 8 7 7 8 9 7 6 6
9 9 7 6 5 3 3 2 3 1 3 4 6 7 7 8 7 7 7 10 12 10 9 9 9 9 8 10 9 8 7 6
10 9 7 6 5 4 2 3 4 4 4 6 6 6 7 7 7 6 7 11 10 8 9 9 8 7 13 15 11 8 8 7
10 7 7 6 6 6 6 6 4 5 5 6 6 6 7 7 7 6 8 9 8 9 8 9 10 9 13 16 15 8 7 6
7 6 5 6 5 5 5 5 5 6 5 6 6 7 7 7 6 5 5 5 5 5 5 7 6 7 12 15 16 7 7 7
Wind_Direction
294 226 194 175 174 156 137 130 135 136 136 124 115 137 185 197 213 224 219 195 217 231 243 231 204 199 204 199 186 193 332 163
4 42 94 119 127 139 148 139 143 140 125 121 133 182 178 280 229 226 217 212 209 216 224 230 211 209 211 210 180 187 193 170
32 77 82 147 149 142 130 132 130 119 114 110 118 140 165 244 219 212 213 215 222 212 224 231 218 218 207 198 192 207 198 185
70 49 70 106 118 116 121 124 121 126 128 117 93 66 53 277 248 263 36 355 305 240 225 225 219 202 213 210 198 197 210 192
109 86 67 78 85 91 96 115 144 147 153 143 170 185 201 217 175 158 251 272 266 278 253 230 227 208 211 216 209 202 204 204
126 119 117 114 116 122 135 137 144 162 168 180 185 209 222 90 251 270 239 243 244 249 266 246 216 216 212 216 203 225 202 212
129 142 143 132 111 127 147 158 178 182 192 200 201 216 211 220 243 245 245 247 241 238 240 233 212 220 202 223 224 224 217 221
154 160 167 156 167 180 183 184 198 204 206 213 213 222 208 220 225 226 236 241 241 226 215 216 220 221 245 244 238 259 255 259
178 182 172 177 185 192 191 197 214 204 208 225 213 215 217 224 216 214 233 224 212 188 214 212 215 217 222 220 226 237 230 243
191 186 194 195 200 209 200 207 227 221 224 227 227 220 220 234 232 222 233 231 219 198 197 209 218 215 213 211 226 243 238 244
197 205 204 210 214 213 212 213 215 223 216 220 230 223 217 226 216 233 231 230 205 218 204 204 210 218 205 202 219 222 229 234
192 198 208 210 218 212 227 233 238 248 228 220 221 226 221 218 224 241 231 206 210 221 216 204 204 217 205 203 212 220 226 233
201 203 196 196 209 228 238 254 260 248 231 219 225 240 227 224 227 235 204 212 200 207 197 202 207 201 195 208 201 199 205 229
204 185 189 180 195 197 201 230 247 267 285 272 270 261 244 238 236 233 207 206 203 201 198 206 219 202 187 198 200 195 201 228
182 157 171 167 137 104 58 25 12 355 348 328 301 282 266 258 254 242 222 220 217 206 207 214 199 185 198 202 202 199 192 212
174 170 174 170 156 134 103 57 18 354 342 317 294 286 276 264 248 234 226 224 229 209 198 199 189 195 196 197 201 189 186 191
170 169 169 174 182 192 182 212 230 213 250 265 272 284 300 289 275 245 222 234 229 199 204 203 200 208 203 194 188 184 187 187
166 168 182 192 208 206 214 224 239 245 264 283 292 288 283 282 282 261 234 228 224 213 211 201 199 204 201 194 185 177 176 173
171 189 205 223 224 226 226 227 243 254 279 288 281 283 275 289 296 285 266 254 215 208 197 202 202 211 195 197 183 170 168 165